Location: Maiden
(35.5760°N, 81.2120°W)
Time: 03:32:52
(UTC-04:00)

Vanguard 2 - Pass Details

Date: 04 August 2020
Orbit: 553 x 2937 km, 32.9° (Epoch: 20 September)

Event Time Altitude Azimuth Distance (km) Brightness Sun altitude
Rises 02:34:42 0° 270° (W) 5,323 11.7 -35.2°
Enters shadow 02:36:06 - 269° (W) 4,859 11.4 -35.1°
Reaches altitude 10° 02:38:52 10° 268° (W) 3,928 - -34.9°
Maximum altitude 02:48:18 71° 187° (S) 1,154 - -34.2°
Drops below altitude 10° 02:53:54 10° 104° (ESE) 2,398 - -33.8°
Exits shadow 02:54:45 - 103° (ESE) 2,710 10.4 -33.7°
Sets 02:55:55 0° 102° (ESE) 3,150 10.8 -33.6°
